Location: Peebles
(55.6412°N, 3.1714°W)
Time: 06:07:18
(UTC+01:00)

deb NNS O-4 - Pass Details

Date: 26 June 2022
Orbit: 977 x 1074 km, 89.9° (Epoch: 16 August)

Event Time Altitude Azimuth Distance (km) Brightness Sun altitude
Rises 00:53:32 0° 117° (ESE) 3,865 ? -10.9°
Reaches altitude 10° 00:56:59 10° 99° (E) 2,914 ? -10.9°
Maximum altitude 01:01:09 18° 60° (ENE) 2,387 ? -10.9°
Drops below altitude 10° 01:05:17 10° 21° (NNE) 2,910 ? -11.0°
Sets 01:08:43 0° 4° (N) 3,857 ? -11.0°
